Regional Weather Roundup
Issued by NWS Newport/Morehead, NC

Home | Current Version | Previous Version | Text Only | Print | Product List | Glossary On
Versions: 1 2 3 4 5 6 7 8 9 10 11 12 13 14 15 16 17 18 19 20 21 22 23 24 25 26 27 28 29 30 31 32 33 34 35 36 37 38 39 40 41 42 43 44 45 46 47 48 49 50
000
ASUS42 KMHX 290113
RWRMHX
WEATHER ROUNDUP FOR EASTERN NORTH CAROLINA
NATIONAL WEATHER SERVICE NEWPORT/MOREHEAD CITY NC
900 PM EDT WED JUN 28 2017

NOTE: "FAIR" INDICATES FEW OR NO CLOUDS BELOW 12,000 FEET
WITH NO SIGNIFICANT WEATHER AND/OR OBSTRUCTIONS TO VISIBILITY

NCZ015>017-031-032-045>047-102-103-290200-
NORTH COAST

CITY           SKY/WX    TMP DP  RH WIND       PRES   REMARKS
EDENTON        CLEAR     73  62  68 CALM      30.19S
ELIZABETH CITY CLEAR     71  61  70 E7        30.19S
KITTY HAWK     CLEAR     70  58  65 E5        30.18F
MANTEO         CLEAR     70  60  71 SE9       30.19F

$$

NCZ045>047-081-094-103-104-290200-
CENTRAL COAST

CITY           SKY/WX    TMP DP  RH WIND       PRES   REMARKS
FRISCO         NOT AVBL

$$

NCZ095-097-098-100-101-290200-
SOUTHERN COAST

CITY           SKY/WX    TMP DP  RH WIND       PRES   REMARKS
BEAUFORT       CLEAR     76  56  49 E5        30.18S
CEDAR ISLAND   NOT AVBL
JACKSONVILLE   CLEAR     74  62  66 S5        30.18R
PINEY ISLAND   CLEAR    N/A N/A N/A E8        30.18S
WILMINGTON     CLEAR     76  60  57 E6        30.18R


$$

NCZ011>013-027>030-043-044-078>080-089-090>093-098-290200-
COASTAL PLAIN

CITY           SKY/WX    TMP DP  RH WIND       PRES   REMARKS
AHOSKIE          N/A     67  62  84 CALM      30.18S
CLINTON        CLEAR     71  59  64 CALM      30.17S
ELIZABETHTOWN  NOT AVBL
GOLDSBORO      CLEAR     73  61  65 SE3       30.16R
GREENVILLE     CLEAR     70  59  68 CALM      30.19R
HAVELOCK       CLEAR     73  59  61 SE5       30.19R
KENANSVILLE    CLEAR     68  59  73 CALM      30.18S
KINSTON        CLEAR     72  61  68 CALM      30.18S
NEW BERN       PTCLDY    74  61  63 SE3       30.19S
RICHLANDS      CLEAR     74  60  61 SE6       30.19R
ROCKY MOUNT    CLEAR     70  62  76 CALM      30.17S
WASHINGTON     CLEAR    N/A N/A N/A SE3       30.18S
WHITEVILLE     CLEAR     76  60  56 CALM      30.17R

$$

AMZ130-135-150-152-154-156-158-170-250-252-270-ANZ085-086-088-633-658-670-290200-
MARINE OBSERVATIONS

STATION/POSITION TIME  TEMP    WIND        PRES    WAVE   SWELL
                       AIR SEA DIR/SP/G            HT/PER HT/PER
                 (UTC) (F)     (DEG/KT/KT) (MB)    (FT/S) (FT/S)
CHESAPEAKE LIGHT NOT AVBL
64 E VA BEACH    0050   71 74  110/ 10/ 12 1022.6    2/ 5   2/ 5
DUCK             0048   72 75  110/ 12/ 14 1021.9
2 E DUCK         NOT AVBL
OREGON INLET     0048           80/  9/ 11 1022.2
13E OREGON INLT  0048      75                N/A     3/ 5   2/ 5
HATTERAS CG      0048   74 78   90/  6/  8 1022.1
DIAMOND BUOY     0050   78 83   40/ 10/ 14 1021.8    2/ 7   2/ 7
CAPE LOOKOUT     0000   79      80/ 11/ 13 1021.7
BEAUFORT LAB     0048   78 80  100/  6/  8 1021.3
30 SE NEW RVR IN NOT AVBL
30 SE NEW RVR IN 0043      81                N/A     2/ 7
27 SE WRIGHTSVLE NOT AVBL
5 SE WRIGHTSVLE  NOT AVBL
225 S CAPE HAT   2350   80 81   60/ 14/ 16 1020.4    3/ 5   2/ 7
41 SE CHARLESTON 0050   81 81   80/ 16/ 19 1020.4    4/ 5

$$



USA.gov is the U.S. government's official web portal to all federal, state and local government web resources and services.